Tracking 25963 objects as of 13-Aug-2022
HD Live streaming from Space Station
objects crossing your sky now

UFO 1 (USA 98)

Track UFO 1 (USA 98) now!
UFO 1 (USA 98) is classified as:


NORAD ID: 22563
Int'l Code: 1993-015A
Perigee: 36,073.4 km
Apogee: 36,091.0 km
Inclination: 22.4 °
Period: 1,450.9 minutes
Semi major axis: 42453 km
RCS: 8.2516 m2 (large)
Launch date: March 25, 1993
Source: United States (US)
Launch site: AIR FORCE EASTERN TEST RANGE (AFETR)
aabbcc
Your satellite tracking list
Your tracking list is empty




NASA's NSSDC Master Catalog

Two Line Element Set (TLE):
1 22563U 93015A   22224.06855156 -.00000181  00000-0  00000-0 0  9995
2 22563  22.4006  94.9133 0002067 266.7514 278.5200  0.99251480110755
Source of the keplerian elements: AFSPC